GW4005 Weather Reports


time (UTC)temp
C
wind
direction
speed
KPH
gust
KPH
rain 1hr
cm
rain 24hr
cm
rain mn
cm
humidity
%
barometer
mb
20260505041532 8 189 8.0 22.5 0.00 0.00 0.00 77 1009.5
20260505041014 8 127 8.0 22.5 0.00 0.00 0.00 77 1009.5
20260505040515 8 220 9.7 17.7 0.00 0.00 0.00 76 1009.5
20260505040040 9 162 8.0 30.6 0.00 0.00 0.00 76 1009.5
20260505035514 9 131 8.0 30.6 0.00 0.00 0.00 75 1009.4
20260505035014 9 166 9.7 20.9 0.00 0.00 0.00 76 1009.5
20260505034539 9 179 9.7 19.3 0.00 0.00 0.00 76 1009.5
20260505034014 9 192 8.0 20.9 0.00 0.00 0.00 77 1009.3
20260505033515 8 158 6.4 20.9 0.00 0.00 0.00 78 1009.3
20260505033033 8 171 6.4 19.3 0.00 0.00 0.00 79 1009.3
20260505032517 8 214 6.4 17.7 0.00 0.00 0.00 79 1009.2
20260505032018 8 191 8.0 19.3 0.00 0.00 0.00 79 1009.3
20260505031533 8 198 8.0 19.3 0.00 0.00 0.00 80 1009.2
20260505031014 8 181 6.4 19.3 0.00 0.00 0.00 80 1009.1
20260505030517 8 214 6.4 19.3 0.00 0.00 0.00 81 1009.0
20260505030035 8 194 4.8 19.3 0.00 0.00 0.00 81 1008.9
20260505025518 7 195 8.0 17.7 0.00 0.00 0.00 81 1008.9
20260505025014 8 185 8.0 19.3 0.00 0.00 0.00 80 1008.9
20260505024532 7 192 8.0 19.3 0.00 0.00 0.00 81 1008.8
20260505024014 7 192 8.0 17.7 0.00 0.00 0.00 82 1008.8
20260505023515 7 158 8.0 19.3 0.00 0.00 0.00 82 1008.9
20260505023035 7 198 9.7 24.1 0.00 0.00 0.00 82 1008.8
20260505022514 7 166 9.7 24.1 0.00 0.00 0.00 81 1008.8
20260505022021 7 208 8.0 24.1 0.00 0.00 0.00 81 1008.7
20260505021535 7 220 8.0 24.1 0.00 0.00 0.00 80 1008.8
20260505021021 7 146 9.7 24.1 0.00 0.00 0.00 80 1008.7
20260505020514 7 212 11.3 27.4 0.00 0.00 0.00 80 1008.7
20260505020039 8 208 9.7 27.4 0.00 0.00 0.00 80 1008.8
20260505015514 8 197 8.0 32.2 0.00 0.00 0.00 79 1008.5
20260505015016 8 236 11.3 32.2 0.00 0.00 0.00 79 1008.6
20260505014534 8 212 11.3 24.1 0.00 0.00 0.00 79 1008.6
20260505014016 8 178 11.3 24.1 0.00 0.00 0.00 79 1008.6
20260505013516 8 208 12.9 22.5 0.00 0.00 0.00 79 1008.6
20260505013033 8 185 11.3 20.9 0.00 0.00 0.00 79 1008.4
20260505012518 8 212 6.4 22.5 0.00 0.00 0.00 79 1008.3
20260505012016 7 166 9.7 25.7 0.00 0.00 0.00 78 1008.1
20260505011537 8 175 11.3 25.7 0.00 0.00 0.00 78 1008.0
20260505011017 8 187 11.3 30.6 0.00 0.00 0.00 77 1008.0
20260505010514 8 126 12.9 30.6 0.00 0.00 0.00 77 1008.0
20260505010031 8 193 12.9 30.6 0.00 0.00 0.00 76 1008.0
20260505005518 8 225 12.9 25.7 0.00 0.03 0.00 76 1007.8
20260505005014 8 182 9.7 27.4 0.00 0.03 0.00 76 1007.7
20260505004530 8 225 11.3 27.4 0.00 0.03 0.00 77 1007.5
20260505004014 8 220 12.9 27.4 0.00 0.03 0.00 78 1007.3
20260505003518 8 199 9.7 24.1 0.00 0.03 0.00 77 1007.3
20260505003034 8 173 9.7 24.1 0.00 0.03 0.00 77 1007.4
20260505002515 8 201 8.0 20.9 0.00 0.03 0.00 76 1007.4
20260505002018 8 146 4.8 19.3 0.00 0.03 0.00 75 1007.4
20260505001533 8 171 8.0 22.5 0.00 0.03 0.00 74 1007.2
20260505001014 9 173 9.7 22.5 0.00 0.03 0.00 73 1007.0
20260505000514 10 183 9.7 24.1 0.00 0.03 0.00 71 1007.0
20260505000043 10 212 8.0 24.1 0.00 0.03 0.00 70 1006.8
20260504235514 10 243 11.3 25.7 0.00 0.18 0.00 69 1006.8
20260504235016 10 197 11.3 25.7 0.00 0.18 0.00 67 1006.8
20260504234536 10 220 8.0 22.5 0.00 0.18 0.00 67 1006.7
20260504234014 10 208 12.9 22.5 0.00 0.18 0.00 66 1006.6
20260504233517 10 156 6.4 24.1 0.00 0.18 0.00 66 1006.3
20260504233035 10 212 9.7 25.7 0.00 0.18 0.00 66 1006.2
20260504232516 10 198 9.7 27.4 0.00 0.18 0.00 67 1006.0
20260504232015 11 193 11.3 27.4 0.00 0.18 0.00 67 1005.9
20260504231531 11 212 11.3 27.4 0.00 0.18 0.00 67 1005.8
20260504231019 11 166 9.7 19.3 0.00 0.18 0.00 67 1005.8
20260504230514 11 171 6.4 20.9 0.00 0.18 0.00 66 1005.7
20260504230033 11 195 8.0 25.7 0.00 0.18 0.00 66 1005.6
20260504225517 11 164 9.7 25.7 0.00 0.51 0.00 66 1005.4
20260504225015 11 185 9.7 27.4 0.00 0.51 0.00 65 1005.3
20260504224530 11 195 12.9 27.4 0.00 0.51 0.00 64 1005.3
20260504224018 11 198 12.9 27.4 0.00 0.51 0.00 64 1005.2
20260504223514 11 222 11.3 27.4 0.00 0.51 0.00 64 1005.2
20260504223032 11 209 11.3 27.4 0.00 0.51 0.00 64 1005.2
20260504222515 11 211 11.3 30.6 0.00 0.51 0.00 65 1005.2
20260504222014 11 184 11.3 35.4 0.00 0.51 0.00 65 1005.1
20260504221536 10 243 14.5 35.4 0.00 0.51 0.00 66 1005.1
20260504221014 10 183 12.9 29.0 0.00 0.51 0.00 67 1005.2
20260504220514 10 205 12.9 30.6 0.00 0.51 0.00 69 1005.1
20260504220045 10 253 11.3 30.6 0.00 0.51 0.00 70 1005.2
20260504215518 9 167 14.5 30.6 0.00 0.79 0.00 71 1005.1
20260504215017 9 178 11.3 27.4 0.00 0.79 0.00 72 1005.2
20260504214536 9 202 11.3 27.4 0.00 0.79 0.00 72 1005.3
20260504214014 9 199 9.7 24.1 0.00 0.79 0.00 71 1005.4
20260504213514 9 168 11.3 27.4 0.00 0.79 0.00 71 1005.4
20260504213041 10 191 11.3 30.6 0.00 0.79 0.00 70 1005.4
20260504212514 10 181 12.9 30.6 0.00 0.79 0.00 69 1005.3
20260504212017 10 236 12.9 33.8 0.00 0.79 0.00 67 1005.2
20260504211539 10 199 16.1 35.4 0.00 0.79 0.00 66 1005.4
20260504211014 10 210 14.5 37.0 0.00 0.79 0.00 65 1005.4
20260504210516 10 162 14.5 37.0 0.00 0.79 0.00 65 1005.5
20260504210033 10 171 14.5 46.7 0.00 0.79 0.00 65 1005.2
20260504205515 10 247 17.7 46.7 0.00 0.97 0.00 65 1005.1
20260504205014 10 238 19.3 43.5 0.00 0.97 0.00 65 1005.1
20260504204540 10 135 16.1 43.5 0.00 0.97 0.00 67 1005.1
20260504204015 10 199 17.7 49.9 0.00 0.97 0.00 68 1005.0
20260504203517 10 212 20.9 49.9 0.00 0.97 0.00 69 1005.0
20260504203033 9 250 16.1 43.5 0.00 0.97 0.00 72 1005.0
20260504202516 8 203 16.1 43.5 0.00 0.97 0.00 74 1005.0
20260504202015 8 176 17.7 41.8 0.00 0.97 0.00 76 1005.1
20260504201533 8 214 19.3 40.2 0.00 0.97 0.00 74 1005.2
20260504201014 9 219 16.1 38.6 0.00 0.97 0.00 73 1005.1
20260504200514 8 198 20.9 38.6 0.00 0.97 0.00 76 1005.1
20260504200033 8 254 12.9 38.6 0.00 0.97 0.00 77 1005.0
20260504195514 8 208 11.3 32.2 0.00 1.22 0.00 76 1005.2
20260504195015 8 256 11.3 41.8 0.00 1.22 0.00 76 1005.1
20260504194532 8 256 14.5 41.8 0.00 1.22 0.00 76 1005.0
20260504194015 8 231 12.9 35.4 0.00 1.22 0.00 76 1004.9
20260504193515 8 192 16.1 29.0 0.00 1.22 0.00 75 1004.8
20260504193031 8 175 16.1 33.8 0.00 1.22 0.00 75 1004.8
20260504192514 8 218 12.9 33.8 0.00 1.22 0.00 73 1004.8
20260504192014 9 194 16.1 30.6 0.00 1.22 0.00 73 1004.7
20260504191535 10 220 14.5 30.6 0.00 1.22 0.00 72 1004.7
20260504191014 10 137 12.9 30.6 0.00 1.22 0.00 73 1004.8
20260504190518 9 233 11.3 29.0 0.00 1.22 0.00 73 1004.6
20260504190034 8 225 12.9 25.7 0.00 1.22 0.00 72 1004.7
20260504185515 8 240 12.9 32.2 0.00 1.42 0.00 72 1004.7
20260504185019 8 179 12.9 32.2 0.00 1.42 0.00 71 1004.7
20260504184530 9 216 12.9 29.0 0.00 1.42 0.00 69 1004.8
20260504184017 10 231 11.3 29.0 0.00 1.42 0.00 68 1004.8
20260504183516 10 184 12.9 30.6 0.00 1.42 0.00 68 1004.9
20260504183036 10 106 12.9 30.6 0.00 1.42 0.00 67 1004.9
20260504182514 10 258 14.5 37.0 0.00 1.42 0.00 69 1004.9
20260504182016 9 232 16.1 37.0 0.00 1.42 0.00 68 1004.9
20260504181535 10 178 12.9 37.0 0.00 1.42 0.00 68 1005.0
20260504181015 10 218 9.7 32.2 0.00 1.42 0.00 67 1005.0
20260504180514 9 249 11.3 32.2 0.00 1.42 0.00 67 1005.0
20260504180045 9 191 14.5 32.2 0.00 1.42 0.00 67 1004.9
20260504175517 9 206 11.3 30.6 0.00 1.85 0.00 69 1005.0
20260504175017 9 205 11.3 32.2 0.00 1.85 0.00 70 1005.0
20260504174531 9 187 11.3 37.0 0.00 1.85 0.00 71 1005.0
20260504174014 8 210 14.5 37.0 0.00 1.85 0.00 71 1005.1
20260504173514 8 197 16.1 32.2 0.00 1.85 0.00 71 1005.0
20260504173032 8 179 14.5 32.2 0.00 1.85 0.00 70 1005.0
20260504172514 8 215 11.3 32.2 0.00 1.85 0.00 70 1005.0
20260504172019 9 243 12.9 33.8 0.00 1.85 0.00 70 1005.0
20260504171530 8 119 12.9 35.4 0.00 1.85 0.00 68 1005.1
20260504171017 8 286 16.1 35.4 0.00 1.85 0.00 68 1005.1
20260504170515 8 200 12.9 30.6 0.00 1.85 0.00 68 1005.1
20260504151016 7 216 16.1 40.2 0.00 3.33 0.00 76 1005.6
20260504150517 7 202 14.5 32.2 0.00 3.33 0.00 76 1005.6
20260504141015 6 213 16.1 37.0 0.00 3.51 0.00 75 1005.8
20260504140516 6 200 12.9 37.0 0.00 3.51 0.00 76 1005.8
20260504130516 5 206 17.7 37.0 0.00 3.51 0.00 80 1005.1
20260504110516 4 186 12.9 38.6 0.00 3.51 0.00 86 1003.2
20260504100514 4 239 11.3 33.8 0.00 3.51 0.00 89 1002.4
20260504081609 4 320 9.7 22.5 0.00 3.51 0.00 91 999.8
20260504081015 4 197 6.4 24.1 0.00 3.51 0.00 91 999.8
20260504080514 4 198 9.7 24.1 0.00 3.51 0.00 91 999.8
20260504050515 3 307 16.1 37.0 0.00 3.51 0.00 92 997.5